Voltar ao catálogo

DELTA 1 DEB

AtivoSSO
NORAD 12198·DEBRIS·🇺🇸 United States

Lançado Mar 5, 1978 de Vandenberg Space Force Base

Loading…

Próximas Passagens (próximas 24 horas)

TLE

AtualizadoSource: Space-Track

Época: Sep 14, 2026, 06:11 UTC

1 12198U 78026AP  26257.25811777  .00000267  00000-0  18778-3 0  9993
2 12198  99.1462 174.5499 0117755  24.5233 336.1472 14.03388215323669

Acompanhe DELTA 1 DEB em tempo real com AllMySat

Download on the App Store